Simultaneous Nadir Overpasses (SNOs) Predictions

Prediction of SNOs between LANDSAT-8 and METOP-A Satellite Orbit:

Table of predicted SNOs for the next 14.0 days since TLE Epoch: 7/14/2018
Index Date (LANDSAT-8) Time (LANDSAT-8) Lat,Lon (LANDSAT-8) SZA (LANDSAT-8 ) Date (METOP-A) Time (METOP-A) Lat,Lon (METOP-A) SZA (METOP-A ) Distance(km) Time Diff (sec)
1 07/16/2018 18:50:13 -81.38, 121.83 117.50 07/16/2018 18:49:39 -81.38, 121.85 117.51 0.37 34
2 07/16/2018 19:39:39 81.38, -70.41 62.53 07/16/2018 19:40:19 81.38, -70.50 62.54 1.50 40
3 07/19/2018 14:24:29 -81.38,-171.58 116.99 07/19/2018 14:23:55 -81.38,-171.39 116.99 3.14 34
4 07/19/2018 15:13:55 81.39, -3.85 63.03 07/19/2018 15:14:35 81.39, -3.79 63.06 1.03 40
5 07/22/2018 09:58:45 -81.37,-105.41 116.50 07/22/2018 09:58:12 -81.38,-105.44 116.51 0.78 33
6 07/22/2018 10:48:10 81.39, 62.69 63.58 07/22/2018 10:48:51 81.38, 62.52 63.57 3.00 41
7 07/25/2018 05:33:01 -81.37, -38.87 115.90 07/25/2018 05:32:28 -81.38, -38.71 115.90 2.83 33
8 07/25/2018 06:22:27 81.38, 128.81 64.12 07/25/2018 06:23:08 81.38, 128.81 64.14 0.64 41
9 07/28/2018 01:07:17 -81.38, 27.63 115.27 07/28/2018 01:06:45 -81.38, 27.61 115.28 0.27 32




NCC Satellite Simultaneous Nadir Overpasses (SNOs) Prediction Service
